Location: Eaton Estates
(41.3089°N, 82.0057°W)
Time: 02:19:04
(UTC+00:00)

Cosmos 2219 Rocket - Pass Details

Date: 17 June 2021
Orbit: 829 x 845 km, 71.0° (Epoch: 02 August)

Event Time Altitude Azimuth Distance (km) Brightness Sun altitude
Exits shadow 02:29:25 17° 122° (ESE) 2,007 3.6 -13.1°
Maximum altitude 02:31:06 19° 100° (E) 1,888 3.6 -13.3°
Drops below altitude 10° 02:35:00 10° 56° (NE) 2,471 4.6 -13.8°
Sets 02:38:06 0° 39° (NE) 3,410 5.5 -14.2°
